カタログに戻る

ARGOS

運用中科学SSO
NORAD 25634·PAYLOAD·🇺🇸 United States

打ち上げ Feb 23, 1999 から Vandenberg Space Force Base

Loading…

次のパス (今後24時間)

TLE

最新Source: Space-Track

元期: Sep 14, 2026, 14:46 UTC

1 25634U 99008A   26257.61542273  .00000017  00000-0  27923-4 0  9993
2 25634  98.5241 220.3681 0010856 136.4874 223.7161 14.20001435426998

AllMySatでARGOSをリアルタイム追跡

Download on the App Store